This demonstration page uses our WeatherBlox Daily Observations layout. Learn more.

Left ArrowRight Arrow

39.12711, -84.51439

Hourly Observations for January 5, 2022

Temp ( °F °C ) Dew Point ( °F °C ) Humidity (%) Winds ( mph kmh ) Pressure ( in mb ) Visibility ( mi km ) Precip ( " mm )
12:53 am 00:53 Clear 42 5.6 31 -0.6 65 65 SSW 15 24 29.84 1011 10 16 0.00 0.00
1:53 am 01:53 Clear 44 6.7 33 0.6 65 65 SSW 20 31 29.83 1010 10 16 0.00 0.00
2:53 am 02:53 Clear 43 6.1 34 1.1 71 71 SSW 18 30 29.83 1010 10 16 0.00 0.00
3:53 am 03:53 Clear 43 6.1 34 1.1 71 71 SSW 18 30 29.81 1010 10 16 0.00 0.00
4:53 am 04:53 Clear 43 6.1 32 0 65 65 SSW 16 26 29.79 1009 10 16 0.00 0.00
5:53 am 05:53 Clear 43 6.1 31 -0.6 63 63 SW 17 28 29.78 1009 10 16 0.00 0.00
6:53 am 06:53 Clear 43 6.1 31 -0.6 63 63 SSW 16 26 29.77 1008 10 16 0.00 0.00
7:53 am 07:53 Clear 43 6.1 31 -0.6 63 63 SSW 22 35 29.78 1008 10 16 0.00 0.00
8:53 am 08:53 Mostly Sunny 43 6.1 31 -0.6 63 63 SSW 22 35 29.78 1009 10 16 0.00 0.00
9:53 am 09:53 Mostly Sunny 45 7.2 31 -0.6 58 58 SW 20 31 29.79 1009 10 16 0.00 0.00
10:53 am 10:53 Partly Cloudy 47 8.3 31 -0.6 54 54 SW 17 28 29.79 1009 10 16 0.00 0.00
11:53 am 11:53 Partly Cloudy 48 8.9 30 -1.1 50 50 WSW 23 37 29.80 1009 10 16 0.00 0.00
12:53 pm 12:53 Mostly Cloudy 50 10 30 -1.1 46 46 SW 22 35 29.78 1009 10 16 0.00 0.00
1:53 pm 13:53 Partly Cloudy 47 8.3 27 -2.8 46 46 WSW 20 31 29.78 1008 10 16 0.00 0.00
2:53 pm 14:53 Mostly Sunny 48 8.9 25 -3.9 41 41 WSW 20 31 29.77 1008 10 16 0.00 0.00
3:53 pm 15:53 Sunny 46 7.8 20 -6.7 35 35 WSW 22 35 29.78 1008 10 16 0.00 0.00
4:53 pm 16:53 Sunny 43 6.1 18 -7.8 37 37 SW 21 33 29.81 1010 10 16 0.00 0.00
5:53 pm 17:53 Clear 40 4.4 17 -8.3 40 40 WSW 18 30 29.84 1011 10 16 0.00 0.00
6:53 pm 18:53 Clear 39 3.9 19 -7.2 45 45 W 21 33 29.89 1012 10 16 0.00 0.00
7:53 pm 19:53 Clear 35 1.7 19 -7.2 52 52 W 20 31 29.94 1014 10 16 0.00 0.00
8:53 pm 20:53 Partly Cloudy 33 0.6 17 -8.3 52 52 W 17 28 29.96 1015 10 16 0.00 0.00
9:53 pm 21:53 Mostly Cloudy 29 -1.7 18 -7.8 63 63 W 16 26 29.99 1016 10 16 0.00 0.00
10:53 pm 22:53 Clear 27 -2.8 16 -8.9 63 63 W 16 26 30.04 1017 10 16 0.00 0.00
11:53 pm 23:53 Clear 25 -3.9 14 -10 63 63 W 14 22 30.06 1018 10 16 0.00 0.00

Powered by AerisWeather